Location: Devils Tower National Monument
(44.5904°N, 104.7201°W)
Time: 17:04:10
(UTC-07:00)

Envisat - Pass Details

Date: 01 February 2020
Orbit: 764 x 766 km, 98.1° (Epoch: 24 February)

Event Time Altitude Azimuth Distance (km) Brightness Sun altitude
Rises 06:31:58 0° 15° (NNE) 3,239 6.2 -8.6°
Reaches altitude 10° 06:34:18 10° 18° (NNE) 2,309 5.5 -8.2°
Maximum altitude 06:39:22 68° 102° (ESE) 822 3.5 -7.3°
Drops below altitude 10° 06:44:24 10° 185° (S) 2,291 5.6 -6.4°
Sets 06:46:43 0° 188° (S) 3,213 6.4 -6.1°
